SCP
0 -0 -0 -0 -0 -0 -0 -0 0 0 0 0 0 0 0 0 0 0 0 0 0 0 0 0 0 0 0 0 0 0 0 0 0 0 0 0 0 0 0 0 0 0 0
0 0 0 -0 0 0 0 0 0 0 0 0 0 0 0 0 0 0 0 0 0 0 0 0 0 0 0 0 0 0 0 0 0 0 0 0 0 0 0 0 0 0 0
0 0 0 0 0 0 0 0 0 0 0 0 0 0 0 0 0 0 0 0 0 0 0 0 0 0 0 0 0 0 0 0 0 0 0 0 0 0 0 0 0 0 0
0 0 0 0 0 0 0 0 0 0 0 0 0 0 0 0 0 0 0 0 0 0 0 0 0 0 0 0 0 0 0 0 0 0 0 0 0 0 0 0 0 0 0
0 0 0 0 0 0 0 0 0 0 0 0 0 0 0 0 0 0 0 0 0 0 0 0 0 0 0 0 0 0 0 0 0 0 0 0 0 0 0 0 0 0 0
0 0 0 0 -0 0 0 0 0 0 0 0 0 0 0 0 0 0 0 0 0 0 0 0 0 0 0 0 0 0 0 0 0 0 0 0 0 0 0 0 0 0 0
0 0 0 0 0 0 0 0 0 0 0 0 0 0 0 0 0 0 0 0 0 0 0 0 0 0 0 0 0 0 0 0 0 0 0 0 0 0 0 0 0 0 0
0 0 0 0 0 0 0 0 0 0 0 0 0 0 0 0 0 0 0 0 0 0 0 0 0 0 0 0 0 0 0 0 0 0 0 0 0 0 0 0 0 0 0
0 0 0 0 0 0 0 0 0 0 0 0 0 0 0 0 0 0 0 0 0 0 0 0 0 0 0 0 0 0 0 0 0 0 0 0 0 0 0 0 0 0 0
0 0 0 0 0 0 0 0 0 0 0 0 0 0 0 0 0 0 0 0 0 0 0 0 0 0 0 0 0 0 0 0 0 0 0 0 0 0 0 0 0 0 0
0 0 0 0 0 0 0 0 0 0 0 0 0 0 0 0 0 0 0 0 0 0 0 0 0 0 0 0 0 0 0 0 0 0 0 0 0 0 0 0 0 0 0
0 0 0 0 0 0 0 0 0 0 -0 0 0 0 0 0 0 0 0 0 0 0 0 0 0 0 0 0 0 0 0 0 0 0 0 0 0 0 0 0 0 0 0
0 0 0 0 0 0 0 0 0 -0 -0 0 0 0 0 0 0 0 0 -0 -0 0 0 0 0 0 0 0 0 0 0 0 0 0 0 0 0 0 0 0 0 0 0
0 0 0 0 0 0 0 0 0 0 0 0 0 0 0 0 0 0 -0 -0 -0 -0 0 0 0 0 0 0 0 0 0 0 0 0 0 0 0 0 0 0 0 0 0
0 0 0 0 0 0 0 0 0 0 0 0 0 0 0 0 0 0 0 0 0 -0 -0 -0 0 0 0 0 0 0 0 0 0 0 0 0 0 0 0 0 0 0 0
0 0 0 0 0 0 0 0 0 0 0 0 0 0 0 0 0 0 0 0 0 0 -0 -0 0 0 0 0 0 0 0 0 0 0 0 0 0 0 0 0 0 0 -0
0 0 0 0 0 0 0 0 0 0 0 0 0 0 0 0 0 0 0 0 -0 -0 -0 -0 0 0 -0 -0 0 0 0 0 0 0 0 0 0 0 0 0 0 0 0
0 0 0 0 0 0 0 0 0 0 0 0 0 0 0 0 0 0 0 0 0 -0 -0 -0 -0 0 0 0 0 0 0 0 0 0 0 0 0 0 0 0 0 0 0
0 0 0 0 0 0 0 0 0 0 0 0 0 0 0 0 0 0 0 0 0 -0 -0 -0 -0 0 0 0 0 0 0 0 0 0 0 0 0 0 0 0 0 0 0
0 0 0 0 0 0 0 0 0 0 0 0 0 0 0 0 0 0 0 0 0 0 0 -0 -0 0 0 0 0 0 0 0 0 0 0 0 0 0 0 0 0 0 0
0 0 0 0 0 0 0 0 0 0 0 0 0 0 0 0 0 0 0 0 0 0 0 -0 -0 0 0 0 0 0 0 -0 -0 0 0 0 0 0 0 0 0 0 0
0 0 0 0 0 0 0 0 0 0 0 0 0 0 0 0 0 0 0 0 0 0 0 -0 -0 -0 -0 0 0 0 -0 -0 -0 0 0 0 0 0 0 0 0 0 0
0 0 0 0 0 0 0 0 0 0 0 0 0 0 0 0 0 0 0 0 0 0 0 0 -0 -0 -0 0 0 0 0 0 0 -0 0 0 0 0 0 0 0 0 0
0 0 0 0 0 0 0 0 0 0 0 0 0 0 0 0 0 0 0 0 0 0 0 0 -0 -0 -0 0 0 0 0 0 0 0 0 0 0 0 0 0 0 0 0
0 0 0 0 0 0 0 0 0 0 0 0 0 0 0 0 0 0 0 0 0 0 0 0 0 -0 -0 -0 0 0 0 0 0 0 0 0 0 0 0 0 0 0 0
0 0 0 0 0 0 0 0 0 0 0 0 0 0 0 0 0 0 0 0 0 0 0 0 0 -0 -0 -0 0 0 0 0 0 0 0 0 0 0 0 0 0 0 0
Wind_Speed_500mb
66 59 53 51 52 52 54 55 51 48 50 49 48 49 48 48 46 46 50 51 47 44 48 33 33 30 36 43 48 41 41 42 42 38 36 33 33 31 28 32 31 29 25
49 47 46 45 50 52 54 52 51 52 48 48 50 52 51 49 47 44 43 45 47 47 46 46 37 38 37 40 51 51 43 48 48 48 42 42 41 45 38 38 36 34 29
37 40 41 44 48 49 50 54 56 56 53 53 49 46 50 51 51 50 48 51 48 46 44 45 40 44 44 44 46 56 52 52 53 53 51 53 50 49 44 41 39 37 31
33 39 40 43 44 48 49 52 52 53 52 52 48 42 44 49 52 53 52 49 50 49 45 44 44 35 43 42 51 51 55 66 56 52 53 49 46 45 45 43 40 38 33
32 37 40 41 40 43 43 48 47 51 53 46 52 50 45 44 50 51 50 52 50 50 48 47 46 44 44 41 47 45 44 50 48 59 59 49 46 44 44 43 40 41 38
31 35 38 38 40 42 46 47 52 52 51 50 53 51 51 48 48 52 53 51 48 49 48 47 47 47 49 50 44 45 42 46 52 64 65 52 51 47 43 44 48 45 36
32 38 41 42 45 48 48 47 46 49 51 54 55 54 53 50 51 55 55 54 51 54 50 50 50 50 53 57 48 43 43 38 56 68 72 64 59 53 44 42 48 44 39
33 39 43 40 40 46 49 51 51 53 54 57 59 56 56 57 53 47 49 53 54 56 55 54 51 50 53 55 51 46 45 45 57 76 76 73 72 59 50 48 44 40 40
32 35 36 40 45 48 51 54 54 57 59 62 64 66 64 58 57 55 50 45 47 51 56 57 59 53 54 51 49 47 43 43 52 83 81 81 76 69 58 53 47 39 41
28 32 35 39 44 48 51 54 54 57 59 60 61 63 64 65 64 62 59 53 47 43 47 52 58 59 55 50 46 45 43 41 51 75 85 89 77 76 65 58 47 46 48
26 31 36 40 42 44 45 50 53 55 56 59 63 66 68 71 69 67 63 61 54 51 44 48 51 51 54 46 39 44 44 45 40 64 97 91 90 79 66 56 54 51 47
28 32 36 38 40 41 44 47 52 56 61 63 65 68 69 69 72 70 69 66 61 54 50 47 45 47 46 47 41 38 31 30 44 54 101 98 90 78 61 57 60 52 48
26 27 32 35 36 38 42 46 51 55 59 62 65 67 70 72 74 76 75 77 74 66 55 53 48 47 45 41 41 40 36 22 22 38 74 88 76 66 65 66 58 43 49
21 25 28 31 32 36 39 45 48 53 57 63 63 65 69 72 74 76 78 76 74 71 63 56 56 45 47 42 38 39 34 29 1 10 46 66 64 57 69 68 47 32 45
17 22 26 28 32 35 38 42 46 50 54 56 60 63 66 70 73 74 75 75 71 71 61 57 59 51 48 48 37 35 33 29 24 20 23 21 43 48 57 59 49 37 48
16 19 23 27 31 32 36 38 41 43 47 52 56 60 63 65 68 73 73 75 72 69 68 56 52 55 44 46 43 33 33 25 22 13 24 44 34 41 32 59 44 51 44
14 19 22 28 29 31 35 37 39 42 43 48 53 55 57 59 62 65 71 71 72 69 71 65 51 44 45 42 42 35 30 32 26 17 10 38 34 45 44 47 52 51 45
13 19 23 25 27 28 33 36 38 40 44 48 52 54 55 57 58 61 65 66 66 65 67 71 62 51 42 40 38 37 31 28 28 16 16 13 29 26 9 33 64 54 49
14 19 22 25 28 29 31 33 36 38 41 45 51 55 57 56 57 59 61 63 62 63 63 66 67 58 43 36 33 34 30 25 23 19 17 6 21 31 15 22 65 46 49
14 20 22 23 25 28 31 34 35 37 39 41 45 51 54 55 55 56 56 58 60 59 61 66 64 68 52 41 33 27 27 21 17 19 21 18 17 12 10 8 43 57 48
14 20 21 23 27 30 35 41 43 45 43 41 42 45 48 51 52 53 54 56 57 59 58 59 63 65 69 58 33 25 22 17 18 15 23 24 13 16 20 19 30 37 48
15 19 20 22 26 29 33 39 42 41 40 38 36 37 41 44 48 51 51 53 56 57 58 58 63 65 62 72 55 24 13 20 19 32 12 7 8 5 2 10 10 23 32
17 18 18 20 23 26 28 32 33 32 35 38 41 41 46 48 48 48 47 50 53 55 58 57 55 57 58 63 63 37 19 12 40 14 18 14 12 10 14 16 21 11 11
19 17 15 16 20 23 28 35 39 41 45 45 42 40 40 43 45 45 46 46 48 51 52 55 51 48 56 61 67 55 32 25 11 14 20 28 20 10 10 24 27 40 22
20 15 13 13 17 22 28 35 35 36 37 39 40 37 37 39 41 43 44 45 44 46 49 50 50 46 48 49 61 67 46 21 13 21 19 23 25 18 17 12 8 23 30
23 16 12 10 15 20 27 32 33 37 40 43 45 44 43 42 40 40 39 42 44 43 46 47 48 44 42 45 51 60 55 43 37 27 28 24 27 21 19 15 9 10 16
Wind_Direction_500mb
342 344 351 358 4 5 6 9 6 6 8 3 360 355 357 353 351 350 348 346 345 344 346 330 306 309 288 277 268 270 261 251 246 236 230 227 237 236 215 214 207 211 200
340 351 359 5 8 9 12 10 10 8 4 4 7 357 355 350 347 344 342 338 338 339 339 343 321 311 289 289 269 266 269 253 244 240 238 238 240 238 239 221 217 229 228
355 4 8 14 16 10 15 14 13 14 11 9 5 359 357 351 347 348 347 345 343 340 333 332 333 323 302 277 282 264 261 258 244 243 242 241 243 243 240 230 221 228 234
6 14 14 20 23 14 14 15 13 12 9 6 1 358 356 358 346 344 351 346 341 340 332 326 322 322 316 292 283 279 262 260 251 242 237 232 234 233 235 227 222 226 227
16 17 18 21 18 17 22 16 9 13 6 359 358 1 355 352 348 342 345 347 345 340 336 325 316 315 312 302 282 283 276 256 254 240 228 229 229 227 228 224 221 225 225
23 22 23 18 15 15 20 21 12 8 1 355 353 357 355 353 340 343 347 346 345 336 339 327 330 316 309 305 285 283 280 253 245 245 238 228 228 228 229 227 224 226 222
24 25 22 17 18 17 15 12 7 5 1 357 358 355 352 349 347 353 354 349 345 336 332 330 332 320 311 305 296 281 280 278 239 243 239 233 229 225 228 224 220 220 196
26 23 22 15 19 19 18 19 20 19 17 13 8 3 355 350 349 344 342 348 347 337 333 328 325 327 323 313 300 286 286 281 251 242 236 229 230 222 224 222 223 212 202
24 21 20 22 28 27 24 24 20 17 17 16 13 10 7 0 349 346 346 341 338 336 337 335 326 325 326 325 310 292 286 283 272 241 232 232 219 215 216 226 222 206 205
20 20 25 26 25 24 23 22 17 14 10 7 6 5 3 2 360 356 348 342 335 328 331 331 327 323 326 324 322 309 297 285 275 242 230 214 217 209 209 219 217 199 196
26 29 28 28 26 26 22 19 14 10 6 3 2 3 3 3 1 1 359 350 338 328 326 326 321 322 322 321 323 316 318 300 304 238 224 222 211 202 209 206 194 194 201
30 30 28 25 20 17 16 12 9 6 6 5 3 2 2 0 359 358 358 357 353 335 327 325 324 322 317 323 328 318 317 311 306 233 234 219 204 202 198 198 194 193 200
30 29 24 20 16 13 11 10 7 6 5 3 2 1 1 359 358 357 354 355 354 351 332 326 334 331 326 323 324 322 315 319 320 212 206 190 195 201 191 197 189 194 208
25 28 21 17 12 11 7 7 5 5 5 6 6 5 2 0 360 359 356 355 355 353 347 338 333 334 330 318 315 316 316 324 113 251 182 179 187 191 197 190 185 205 190
25 25 18 10 10 8 5 6 3 5 5 5 6 6 4 3 360 360 360 358 357 354 351 344 334 331 328 325 313 321 313 311 330 187 240 179 182 192 181 186 188 185 186
18 19 13 8 8 4 6 8 5 3 4 1 3 4 3 3 0 358 359 360 0 357 351 344 334 325 322 326 320 314 316 315 329 303 211 207 204 202 199 191 190 180 177
4 9 6 5 3 4 8 8 6 4 357 359 1 1 2 360 360 358 358 359 2 359 356 345 342 328 317 325 322 329 307 312 315 314 295 213 204 204 216 192 196 185 178
353 356 360 2 359 4 8 6 5 2 357 357 356 357 358 357 359 359 357 358 0 0 1 356 356 342 328 332 330 328 329 305 306 308 282 251 238 213 237 204 192 183 177
339 349 349 355 357 359 3 5 7 3 1 359 354 355 355 355 357 358 358 358 359 3 2 359 6 358 348 324 323 333 332 325 309 305 287 321 227 243 285 266 170 177 175
327 338 341 349 353 357 357 2 7 7 6 2 357 356 356 356 356 357 357 358 0 2 4 4 360 12 3 350 334 341 335 327 320 343 356 310 297 236 225 145 160 170 172
310 323 332 347 352 354 357 1 5 8 4 3 360 356 353 355 356 357 358 360 2 4 6 7 4 8 11 6 347 333 334 329 325 322 303 312 12 278 278 130 138 159 171
290 310 326 342 349 354 358 2 1 358 3 1 359 355 360 2 359 357 360 2 4 4 5 6 12 3 5 10 7 1 331 346 352 339 340 350 291 337 324 242 269 124 139
273 295 320 337 344 350 353 353 353 354 357 360 3 360 1 360 2 2 2 2 4 6 8 7 7 10 359 6 15 15 345 335 338 341 337 319 275 265 284 272 247 272 164
256 283 313 329 337 344 350 350 353 357 357 359 354 351 354 353 358 1 4 3 3 6 9 10 8 11 13 7 9 7 6 342 336 321 324 333 4 3 285 272 261 239 238
243 267 298 317 333 339 344 349 351 352 354 349 342 344 346 348 350 355 0 3 3 5 8 8 10 12 14 13 9 8 1 6 10 325 316 331 340 1 5 353 268 236 238
232 251 275 303 318 335 339 344 347 349 349 344 338 341 344 342 342 347 356 360 2 3 6 8 11 11 12 16 15 11 10 359 338 342 328 313 316 334 336 329 311 245 233
Wind_Speed_850mb
66 59 53 51 52 52 54 55 51 48 50 49 48 49 48 48 46 46 50 51 47 44 48 33 33 30 36 43 48 41 41 42 42 38 36 33 33 31 28 32 31 29 25
49 47 46 45 50 52 54 52 51 52 48 48 50 52 51 49 47 44 43 45 47 47 46 46 37 38 37 40 51 51 43 48 48 48 42 42 41 45 38 38 36 34 29
37 40 41 44 48 49 50 54 56 56 53 53 49 46 50 51 51 50 48 51 48 46 44 45 40 44 44 44 46 56 52 52 53 53 51 53 50 49 44 41 39 37 31
33 39 40 43 44 48 49 52 52 53 52 52 48 42 44 49 52 53 52 49 50 49 45 44 44 35 43 42 51 51 55 66 56 52 53 49 46 45 45 43 40 38 33
32 37 40 41 40 43 43 48 47 51 53 46 52 50 45 44 50 51 50 52 50 50 48 47 46 44 44 41 47 45 44 50 48 59 59 49 46 44 44 43 40 41 38
31 35 38 38 40 42 46 47 52 52 51 50 53 51 51 48 48 52 53 51 48 49 48 47 47 47 49 50 44 45 42 46 52 64 65 52 51 47 43 44 48 45 36
32 38 41 42 45 48 48 47 46 49 51 54 55 54 53 50 51 55 55 54 51 54 50 50 50 50 53 57 48 43 43 38 56 68 72 64 59 53 44 42 48 44 39
33 39 43 40 40 46 49 51 51 53 54 57 59 56 56 57 53 47 49 53 54 56 55 54 51 50 53 55 51 46 45 45 57 76 76 73 72 59 50 48 44 40 40
32 35 36 40 45 48 51 54 54 57 59 62 64 66 64 58 57 55 50 45 47 51 56 57 59 53 54 51 49 47 43 43 52 83 81 81 76 69 58 53 47 39 41
28 32 35 39 44 48 51 54 54 57 59 60 61 63 64 65 64 62 59 53 47 43 47 52 58 59 55 50 46 45 43 41 51 75 85 89 77 76 65 58 47 46 48
26 31 36 40 42 44 45 50 53 55 56 59 63 66 68 71 69 67 63 61 54 51 44 48 51 51 54 46 39 44 44 45 40 64 97 91 90 79 66 56 54 51 47
28 32 36 38 40 41 44 47 52 56 61 63 65 68 69 69 72 70 69 66 61 54 50 47 45 47 46 47 41 38 31 30 44 54 101 98 90 78 61 57 60 52 48
26 27 32 35 36 38 42 46 51 55 59 62 65 67 70 72 74 76 75 77 74 66 55 53 48 47 45 41 41 40 36 22 22 38 74 88 76 66 65 66 58 43 49
21 25 28 31 32 36 39 45 48 53 57 63 63 65 69 72 74 76 78 76 74 71 63 56 56 45 47 42 38 39 34 29 1 10 46 66 64 57 69 68 47 32 45
17 22 26 28 32 35 38 42 46 50 54 56 60 63 66 70 73 74 75 75 71 71 61 57 59 51 48 48 37 35 33 29 24 20 23 21 43 48 57 59 49 37 48
16 19 23 27 31 32 36 38 41 43 47 52 56 60 63 65 68 73 73 75 72 69 68 56 52 55 44 46 43 33 33 25 22 13 24 44 34 41 32 59 44 51 44
14 19 22 28 29 31 35 37 39 42 43 48 53 55 57 59 62 65 71 71 72 69 71 65 51 44 45 42 42 35 30 32 26 17 10 38 34 45 44 47 52 51 45
13 19 23 25 27 28 33 36 38 40 44 48 52 54 55 57 58 61 65 66 66 65 67 71 62 51 42 40 38 37 31 28 28 16 16 13 29 26 9 33 64 54 49
14 19 22 25 28 29 31 33 36 38 41 45 51 55 57 56 57 59 61 63 62 63 63 66 67 58 43 36 33 34 30 25 23 19 17 6 21 31 15 22 65 46 49
14 20 22 23 25 28 31 34 35 37 39 41 45 51 54 55 55 56 56 58 60 59 61 66 64 68 52 41 33 27 27 21 17 19 21 18 17 12 10 8 43 57 48
14 20 21 23 27 30 35 41 43 45 43 41 42 45 48 51 52 53 54 56 57 59 58 59 63 65 69 58 33 25 22 17 18 15 23 24 13 16 20 19 30 37 48
15 19 20 22 26 29 33 39 42 41 40 38 36 37 41 44 48 51 51 53 56 57 58 58 63 65 62 72 55 24 13 20 19 32 12 7 8 5 2 10 10 23 32
17 18 18 20 23 26 28 32 33 32 35 38 41 41 46 48 48 48 47 50 53 55 58 57 55 57 58 63 63 37 19 12 40 14 18 14 12 10 14 16 21 11 11
19 17 15 16 20 23 28 35 39 41 45 45 42 40 40 43 45 45 46 46 48 51 52 55 51 48 56 61 67 55 32 25 11 14 20 28 20 10 10 24 27 40 22
20 15 13 13 17 22 28 35 35 36 37 39 40 37 37 39 41 43 44 45 44 46 49 50 50 46 48 49 61 67 46 21 13 21 19 23 25 18 17 12 8 23 30
23 16 12 10 15 20 27 32 33 37 40 43 45 44 43 42 40 40 39 42 44 43 46 47 48 44 42 45 51 60 55 43 37 27 28 24 27 21 19 15 9 10 16
Wind_Direction_850mb
342 344 351 358 4 5 6 9 6 6 8 3 360 355 357 353 351 350 348 346 345 344 346 330 306 309 288 277 268 270 261 251 246 236 230 227 237 236 215 214 207 211 200
340 351 359 5 8 9 12 10 10 8 4 4 7 357 355 350 347 344 342 338 338 339 339 343 321 311 289 289 269 266 269 253 244 240 238 238 240 238 239 221 217 229 228
355 4 8 14 16 10 15 14 13 14 11 9 5 359 357 351 347 348 347 345 343 340 333 332 333 323 302 277 282 264 261 258 244 243 242 241 243 243 240 230 221 228 234
6 14 14 20 23 14 14 15 13 12 9 6 1 358 356 358 346 344 351 346 341 340 332 326 322 322 316 292 283 279 262 260 251 242 237 232 234 233 235 227 222 226 227
16 17 18 21 18 17 22 16 9 13 6 359 358 1 355 352 348 342 345 347 345 340 336 325 316 315 312 302 282 283 276 256 254 240 228 229 229 227 228 224 221 225 225
23 22 23 18 15 15 20 21 12 8 1 355 353 357 355 353 340 343 347 346 345 336 339 327 330 316 309 305 285 283 280 253 245 245 238 228 228 228 229 227 224 226 222
24 25 22 17 18 17 15 12 7 5 1 357 358 355 352 349 347 353 354 349 345 336 332 330 332 320 311 305 296 281 280 278 239 243 239 233 229 225 228 224 220 220 196
26 23 22 15 19 19 18 19 20 19 17 13 8 3 355 350 349 344 342 348 347 337 333 328 325 327 323 313 300 286 286 281 251 242 236 229 230 222 224 222 223 212 202
24 21 20 22 28 27 24 24 20 17 17 16 13 10 7 0 349 346 346 341 338 336 337 335 326 325 326 325 310 292 286 283 272 241 232 232 219 215 216 226 222 206 205
20 20 25 26 25 24 23 22 17 14 10 7 6 5 3 2 360 356 348 342 335 328 331 331 327 323 326 324 322 309 297 285 275 242 230 214 217 209 209 219 217 199 196
26 29 28 28 26 26 22 19 14 10 6 3 2 3 3 3 1 1 359 350 338 328 326 326 321 322 322 321 323 316 318 300 304 238 224 222 211 202 209 206 194 194 201
30 30 28 25 20 17 16 12 9 6 6 5 3 2 2 0 359 358 358 357 353 335 327 325 324 322 317 323 328 318 317 311 306 233 234 219 204 202 198 198 194 193 200
30 29 24 20 16 13 11 10 7 6 5 3 2 1 1 359 358 357 354 355 354 351 332 326 334 331 326 323 324 322 315 319 320 212 206 190 195 201 191 197 189 194 208
25 28 21 17 12 11 7 7 5 5 5 6 6 5 2 0 360 359 356 355 355 353 347 338 333 334 330 318 315 316 316 324 113 251 182 179 187 191 197 190 185 205 190
25 25 18 10 10 8 5 6 3 5 5 5 6 6 4 3 360 360 360 358 357 354 351 344 334 331 328 325 313 321 313 311 330 187 240 179 182 192 181 186 188 185 186
18 19 13 8 8 4 6 8 5 3 4 1 3 4 3 3 0 358 359 360 0 357 351 344 334 325 322 326 320 314 316 315 329 303 211 207 204 202 199 191 190 180 177
4 9 6 5 3 4 8 8 6 4 357 359 1 1 2 360 360 358 358 359 2 359 356 345 342 328 317 325 322 329 307 312 315 314 295 213 204 204 216 192 196 185 178
353 356 360 2 359 4 8 6 5 2 357 357 356 357 358 357 359 359 357 358 0 0 1 356 356 342 328 332 330 328 329 305 306 308 282 251 238 213 237 204 192 183 177
339 349 349 355 357 359 3 5 7 3 1 359 354 355 355 355 357 358 358 358 359 3 2 359 6 358 348 324 323 333 332 325 309 305 287 321 227 243 285 266 170 177 175
327 338 341 349 353 357 357 2 7 7 6 2 357 356 356 356 356 357 357 358 0 2 4 4 360 12 3 350 334 341 335 327 320 343 356 310 297 236 225 145 160 170 172
310 323 332 347 352 354 357 1 5 8 4 3 360 356 353 355 356 357 358 360 2 4 6 7 4 8 11 6 347 333 334 329 325 322 303 312 12 278 278 130 138 159 171
290 310 326 342 349 354 358 2 1 358 3 1 359 355 360 2 359 357 360 2 4 4 5 6 12 3 5 10 7 1 331 346 352 339 340 350 291 337 324 242 269 124 139
273 295 320 337 344 350 353 353 353 354 357 360 3 360 1 360 2 2 2 2 4 6 8 7 7 10 359 6 15 15 345 335 338 341 337 319 275 265 284 272 247 272 164
256 283 313 329 337 344 350 350 353 357 357 359 354 351 354 353 358 1 4 3 3 6 9 10 8 11 13 7 9 7 6 342 336 321 324 333 4 3 285 272 261 239 238
243 267 298 317 333 339 344 349 351 352 354 349 342 344 346 348 350 355 0 3 3 5 8 8 10 12 14 13 9 8 1 6 10 325 316 331 340 1 5 353 268 236 238
232 251 275 303 318 335 339 344 347 349 349 344 338 341 344 342 342 347 356 360 2 3 6 8 11 11 12 16 15 11 10 359 338 342 328 313 316 334 336 329 311 245 233